San Antonio Stinson, TX

5:46 PM CDT on May 27, 2017 (GMT -0500)
Stinson Municipal

Weather History for KSSF - November, 2010

Change the Weather History Date:

Thursday, November 25, 2010

  Actual Average Record
Temperature  
Mean Temperature 67 °F -  
Max Temperature 84 °F 66 °F 84 °F (2010)
Min Temperature 50 °F 47 °F 30 °F (2003)
Cooling Degree Days 2    
Growing Degree Days 17 (Base 50)    
Moisture  
Dew Point 55 °F    
Average Humidity 64    
Maximum Humidity 84    
Minimum Humidity 31    
Precipitation  
Precipitation 0.00 in - - ()
Sea Level Pressure  
Sea Level Pressure 29.78 in    
Wind  
Wind Speed 9 mph (SE)    
Max Wind Speed 21 mph    
Max Gust Speed 36 mph    
Visibility 10 miles    
Events      
Averages and records for this station are not official NWS values.
T = Trace of Precipitation, MM = Missing Value Source: NWS Daily Summary

Daily Weather History Graph

Daily Weather History Graph

Search for Another Location

Airport or City:

Trip Planner

Search our weather history database for the weather conditions in past years. The results will help you decide how hot, cold, wet, or windy it might be!

Date:

Astronomy

Nov. 25, 2010 Rise Set
Actual Time 7:05 AM CST 5:35 PM CST
Civil Twilight 6:40 AM CST 6:01 PM CST
Nautical Twilight 6:11 AM CST 6:30 PM CST
Astronomical Twilight 5:42 AM CST 6:58 PM CST
Moon 9:32 PM CST (11/25) 10:37 AM CST (11/25)
Length of Visible Light 11h 20m
Length of Day
10h 29m
Waning Gibbous, 82% of the Moon is Illuminated
Nov 25
Waning Gibbous
Nov 28
Last Quarter
Dec 5
New
Dec 13
First Quarter
Dec 21
Full

Hourly Weather History & Observations

Time (CST) Temp. Heat Index Dew Point Humidity Pressure Visibility Wind Dir Wind Speed Gust Speed Precip Events Conditions
12:53 AM 73.9 °F - 66.9 °F 79% 29.70 in 10.0 mi SSE 12.7 mph 20.7 mph N/A   Overcast
1:53 AM 73.0 °F - 66.0 °F 79% 29.69 in 10.0 mi SSE 11.5 mph - N/A   Overcast
2:53 AM 73.0 °F - 66.0 °F 79% 29.70 in 10.0 mi South 9.2 mph - N/A   Overcast
3:53 AM 72.0 °F - 66.0 °F 81% 29.69 in 10.0 mi SSE 6.9 mph - N/A   Overcast
4:53 AM 72.0 °F - 66.0 °F 81% 29.68 in 10.0 mi SSE 10.4 mph - N/A   Mostly Cloudy
5:06 AM 71.6 °F - 66.2 °F 83% 29.71 in 10.0 mi SSE 6.9 mph - N/A   Scattered Clouds
5:53 AM 71.1 °F - 66.0 °F 84% 29.68 in 10.0 mi South 4.6 mph - N/A   Overcast
6:53 AM 72.0 °F - 66.0 °F 81% 29.70 in 10.0 mi Calm Calm - N/A   Overcast
7:03 AM 71.6 °F - 66.2 °F 83% 29.73 in 10.0 mi Calm Calm - N/A   Overcast
7:10 AM 71.6 °F - 66.2 °F 83% 29.73 in 10.0 mi Calm Calm - N/A   Overcast
7:40 AM 71.6 °F - 66.2 °F 83% 29.74 in 10.0 mi SE 3.5 mph - N/A   Overcast
7:53 AM 72.0 °F - 66.9 °F 84% 29.72 in 10.0 mi Calm Calm - N/A   Overcast
8:53 AM 75.0 °F - 66.9 °F 76% 29.73 in 10.0 mi SSE 8.1 mph - N/A   Overcast
9:50 AM 75.2 °F - 66.2 °F 73% 29.77 in 10.0 mi South 12.7 mph - N/A   Overcast
9:53 AM 75.9 °F - 66.0 °F 71% 29.74 in 10.0 mi South 8.1 mph - N/A   Overcast
10:20 AM 77.0 °F - 66.2 °F 69% 29.78 in 10.0 mi South 8.1 mph - N/A   Overcast
10:53 AM 78.1 °F - 66.0 °F 66% 29.73 in 10.0 mi South 8.1 mph - N/A   Overcast
11:53 AM 79.0 °F - 64.9 °F 62% 29.73 in 10.0 mi SSW 8.1 mph - N/A   Overcast
12:44 PM 82.4 °F 84.6 °F 66.2 °F 58% 29.71 in 10.0 mi South 8.1 mph - N/A   Mostly Cloudy
12:53 PM 82.0 °F 84.1 °F 66.0 °F 58% 29.68 in 10.0 mi South 4.6 mph - N/A   Mostly Cloudy
1:53 PM 82.9 °F 84.6 °F 64.9 °F 54% 29.68 in 10.0 mi SW 4.6 mph - N/A   Scattered Clouds
2:53 PM 82.9 °F 84.0 °F 63.0 °F 51% 29.68 in 10.0 mi Calm Calm - N/A   Clear
3:53 PM 84.0 °F 84.9 °F 63.0 °F 49% 29.69 in 10.0 mi North 5.8 mph - N/A   Clear
4:53 PM 71.1 °F - 48.0 °F 44% 29.74 in 10.0 mi North 16.1 mph 24.2 mph N/A   Scattered Clouds
5:53 PM 60.1 °F - 39.0 °F 46% 29.83 in 10.0 mi North 13.8 mph 25.3 mph N/A   Clear
6:53 PM 52.0 °F - 35.1 °F 53% 29.91 in 10.0 mi North 16.1 mph 29.9 mph N/A   Clear
7:24 PM 51.8 °F - 35.6 °F 54% 29.94 in 10.0 mi NNE 17.3 mph 24.2 mph N/A   Mostly Cloudy
7:53 PM 51.1 °F - 34.0 °F 52% 29.94 in 10.0 mi North 20.7 mph 27.6 mph N/A   Overcast
8:53 PM 51.1 °F - 30.0 °F 44% 29.97 in 10.0 mi North 20.7 mph 28.8 mph N/A   Overcast
9:53 PM 51.1 °F - 28.0 °F 41% 30.00 in 10.0 mi NNE 15.0 mph 35.7 mph N/A   Overcast
10:53 PM 51.1 °F - 23.0 °F 33% 30.04 in 10.0 mi North 16.1 mph 26.5 mph N/A   Overcast
11:10 PM 50.0 °F - 21.2 °F 32% 30.06 in 10.0 mi NNE 16.1 mph 29.9 mph N/A   Overcast
11:53 PM 50.0 °F - 19.9 °F 31% 30.04 in 10.0 mi NNE 19.6 mph 28.8 mph N/A   Overcast